CW9236 Weather Reports


Display with metric or nautical units.
time (UTC)temp
F
wind
direction
speed
MPH
gust
MPH
rain 1hr
in
rain 24hr
in
rain mn
in
humidity
%
barometer
mb
20210618215204 91 71 8.0 14.0 0.00 0.00 0.00 46 1010.2
20210618214704 91 70 8.0 14.0 0.00 0.00 0.00 45 1010.3
20210618214205 92 76 6.0 9.0 0.00 0.00 0.00 47 1010.3
20210618213704 92 51 4.0 14.0 0.00 0.00 0.00 45 1010.3
20210618213204 92 175 5.0 14.0 0.00 0.00 0.00 47 1010.3
20210618212707 91 61 8.0 14.0 0.00 0.00 0.00 45 1010.4
20210618212204 91 102 9.0 13.0 0.00 0.00 0.00 45 1010.5
20210618211705 91 106 5.0 11.0 0.00 0.00 0.00 46 1010.6
20210618211204 91 26 5.0 13.0 0.00 0.00 0.00 46 1010.6
20210618210704 91 92 7.0 13.0 0.00 0.00 0.00 46 1010.6
20210618210208 91 78 8.0 16.0 0.00 0.00 0.00 47 1010.6
20210618205704 91 63 8.0 16.0 0.00 0.00 0.00 44 1010.8
20210618205205 92 90 6.0 16.0 0.00 0.00 0.00 45 1010.8
20210618204708 91 101 7.0 16.0 0.00 0.00 0.00 50 1010.8
20210618204204 91 104 7.0 15.0 0.00 0.00 0.00 45 1010.9
20210618203704 92 86 5.0 12.0 0.00 0.00 0.00 46 1010.9
20210618203205 91 50 5.0 16.0 0.00 0.00 0.00 47 1010.9
20210618202707 91 186 6.0 16.0 0.00 0.00 0.00 49 1011.0
20210618202205 91 49 9.0 16.0 0.00 0.00 0.00 46 1011.1
20210618201704 91 88 9.0 12.0 0.00 0.00 0.00 46 1011.1
20210618201204 92 70 5.0 13.0 0.00 0.00 0.00 46 1011.2
20210618200705 91 123 5.0 15.0 0.00 0.00 0.00 46 1011.2
20210618200204 90 74 7.0 15.0 0.00 0.00 0.00 46 1011.3
20210618195704 90 46 7.0 15.0 0.00 0.00 0.00 46 1011.4
20210618195204 91 71 8.0 15.0 0.00 0.00 0.00 47 1011.4
20210618194704 90 120 9.0 15.0 0.00 0.00 0.00 47 1011.4
20210618194204 91 61 8.0 14.0 0.00 0.00 0.00 48 1011.4
20210618193704 90 102 8.0 14.0 0.00 0.00 0.00 48 1011.4
20210618193204 91 61 8.0 14.0 0.00 0.00 0.00 46 1011.5
20210618192704 90 117 9.0 14.0 0.00 0.00 0.00 48 1011.5
20210618192204 91 84 10.0 13.0 0.00 0.00 0.00 46 1011.5
20210618191704 90 76 8.0 16.0 0.00 0.00 0.00 46 1011.6
20210618191204 90 117 8.0 16.0 0.00 0.00 0.00 46 1011.6
20210618190705 90 70 7.0 16.0 0.00 0.00 0.00 45 1011.7
20210618190204 90 41 7.0 15.0 0.00 0.00 0.00 49 1011.7
20210618185704 90 57 10.0 15.0 0.00 0.00 0.00 45 1011.8
20210618185205 90 33 9.0 15.0 0.00 0.00 0.00 45 1011.8
20210618184705 90 61 9.0 15.0 0.00 0.00 0.00 47 1011.9
20210618184207 90 59 9.0 13.0 0.00 0.00 0.00 48 1011.9
20210618183704 90 75 7.0 13.0 0.00 0.00 0.00 46 1011.9
20210618183204 89 49 6.0 18.0 0.00 0.00 0.00 45 1011.9
20210618182705 89 30 9.0 18.0 0.00 0.00 0.00 49 1012.0
20210618182204 90 17 10.0 18.0 0.00 0.00 0.00 48 1012.0
20210618181707 89 72 7.0 13.0 0.00 0.00 0.00 47 1012.1
20210618181204 89 48 7.0 15.0 0.00 0.00 0.00 45 1012.1
20210618180705 89 41 8.0 15.0 0.00 0.00 0.00 45 1012.1
20210618180205 89 70 7.0 14.0 0.00 0.00 0.00 46 1012.3
20210618175704 89 86 7.0 15.0 0.00 0.00 0.00 47 1012.3
20210618175204 89 42 9.0 15.0 0.00 0.00 0.00 45 1012.4
20210618174705 89 309 7.0 14.0 0.00 0.00 0.00 44 1012.4
20210618174205 89 68 6.0 14.0 0.00 0.00 0.00 51 1012.5
20210618173704 89 92 7.0 13.0 0.00 0.00 0.00 47 1012.6
20210618173204 88 59 8.0 14.0 0.00 0.00 0.00 45 1012.7
20210618172705 88 92 9.0 14.0 0.00 0.00 0.00 45 1012.7
20210618172207 88 69 9.0 15.0 0.00 0.00 0.00 46 1012.7
20210618171704 88 121 9.0 15.0 0.00 0.00 0.00 46 1012.7
20210618171208 88 43 9.0 15.0 0.00 0.00 0.00 48 1012.7
20210618170707 88 113 9.0 15.0 0.00 0.00 0.00 47 1012.8
20210618170203 89 117 9.0 14.0 0.00 0.00 0.00 45 1012.8
20210618165705 89 155 9.0 15.0 0.00 0.00 0.00 48 1012.9
20210618165204 89 164 8.0 16.0 0.00 0.00 0.00 48 1013.1
20210618164705 88 113 8.0 16.0 0.00 0.00 0.00 48 1013.0
20210618164204 88 126 10.0 16.0 0.00 0.00 0.00 47 1013.0
20210618163705 88 74 10.0 17.0 0.00 0.00 0.00 48 1013.1
20210618163207 88 64 11.0 17.0 0.00 0.00 0.00 49 1013.0
20210618162705 88 101 11.0 19.0 0.00 0.00 0.00 45 1013.1
20210618162213 88 113 11.0 19.0 0.00 0.00 0.00 49 1013.2
20210618161704 88 76 11.0 19.0 0.00 0.00 0.00 49 1013.1
20210618161205 87 48 9.0 13.0 0.00 0.00 0.00 48 1013.2
20210618160705 87 79 7.0 16.0 0.00 0.00 0.00 52 1013.3
20210618160204 87 61 8.0 16.0 0.00 0.00 0.00 51 1013.3
20210618155705 87 93 10.0 16.0 0.00 0.00 0.00 47 1013.3
20210618155204 87 108 9.0 15.0 0.00 0.00 0.00 50 1013.3
20210618154707 87 78 10.0 15.0 0.00 0.00 0.00 52 1013.4
20210618154204 87 47 10.0 15.0 0.00 0.00 0.00 48 1013.5
20210618153705 86 55 9.0 13.0 0.00 0.00 0.00 53 1013.5
20210618153204 86 81 9.0 14.0 0.00 0.00 0.00 52 1013.5
20210618152704 86 79 9.0 14.0 0.00 0.00 0.00 53 1013.6
20210618152204 86 119 8.0 14.0 0.00 0.00 0.00 55 1013.6